Hourly Data Report for May 06, 2012

All times are specified in Local Standard Time (LST). Add 1 hour to adjust for Daylight Saving Time where and when it is observed.

GANDER INTL A
NEWFOUNDLAND

48°56'13.000" N
54°34'05.000" W
151.20 m
8401703
71803
YQX

Related Data

No related data is available for this station

Download Data

Hourly Data (May 2012)
Hourly Data Report for May 6, 2012
Temp Definition
°C
Dew Point Temp Definition
°C
Rel Hum Definition
%
Wind Dir Definition
10's deg

Wind Spd Definition
km/h
Visibility Definition
km
Stn Press Definition
kPa
Hmdx Definition


Wind Chill Definition


Weather Definition


TIME
00:30 Legend Double Dagger 5.4 4.5 94 6 14 9.7 100.01     Fog
01:30 Legend Double Dagger 4.9 4.2 95 7 10 8.1 100.00     Fog
02:30 Legend Double Dagger 4.9 4.2 95 5 10 8.1 99.97     Fog
03:30 Legend Double Dagger 4.7 4.3 97 6 12 2.8 99.94     Fog
04:30 Legend Double Dagger 4.6 4.2 97 6 12 2.0 99.93     Fog
05:30 Legend Double Dagger 4.6 4.2 97 7 11 2.8 99.94     Fog
06:30 Legend Double Dagger 4.9 4.5 97 7 9 3.2 99.96     Fog
07:30 Legend Double Dagger 5.5 4.6 94 5 12 4.8 99.98     Fog
08:30 Legend Double Dagger 5.6 4.9 95 5 12 2.8 99.97     Fog
09:30 Legend Double Dagger 6.6 5.4 92 5 10 10.0 99.96     LegendNANA
10:30 Legend Double Dagger 8.2 6.0 86 5 10 10.0 99.95     LegendNANA
11:30 Legend Double Dagger 9.3 6.2 81 6 8 10.0 99.94     Cloudy
12:30 Legend Double Dagger 9.5 6.4 81 9 9 10.0 99.93     LegendNANA
13:30 Legend Double Dagger 10.2 6.6 78 10 12 10.0 99.91     LegendNANA
14:30 Legend Double Dagger 10.6 6.0 73 14 19 10.0 99.88     Cloudy
15:30 Legend Double Dagger 10.5 5.7 72 10 20 10.0 99.90     LegendNANA
16:30 Legend Double Dagger 10.4 5.8 73 10 14 10.0 99.91     LegendNANA
17:30 Legend Double Dagger 9.8 6.0 77 10 17 10.0 99.93     Cloudy
18:30 Legend Double Dagger 8.7 6.3 85 9 17 10.0 99.97     LegendNANA
19:30 Legend Double Dagger 7.8 6.3 90 10 12 10.0 99.99     LegendNANA
20:30 Legend Double Dagger 7.3 6.1 92 6 14 10.0 100.02     Cloudy
21:30 Legend Double Dagger 6.2 5.8 97 11 12 2.4 100.00     Fog
22:30 Legend Double Dagger 5.9 5.6 98 10 10 0.8 99.99     Fog
23:30 Legend Double Dagger 5.4 5.1 98 9 10 2.4 99.99     Fog

Notes on Data Quality.

Legend

  • E = Estimated
  • M = Missing
  • NA = Not Available
  • ‡ = Partner data that is not subject to review by the National Climate Archives
Date modified: